This is the latest recevied weather packets stored in our database for station/object W0VI. If no packets are shown the sender has not sent any weather packets the latest 10 day(s).
| Time | Temp. | Humidity | Pressure | Rain* | Wind** | Luminosity | Snow |
|---|---|---|---|---|---|---|---|
| 1777986503 | 4.44° C | 51% | 1010.1 hPa | 0 mm | - | 213 W/m² | - |
| 1777986201 | 3.89° C | 52% | 1010.1 hPa | 0 mm | - | 198 W/m² | - |
| 1777985898 | 3.89° C | 52% | 1010.2 hPa | 0 mm | - | 191 W/m² | - |
| 1777985595 | 3.89° C | 53% | 1010 hPa | 0 mm | - | 107 W/m² | - |
| 1777985291 | 3.89° C | 53% | 1010.1 hPa | 0 mm | - | 68 W/m² | - |
| 1777984988 | 3.89° C | 53% | 1009.9 hPa | 0 mm | - | 118 W/m² | - |
| 1777984684 | 3.89° C | 53% | 1010 hPa | 0 mm | - | 112 W/m² | - |
| 1777984381 | 3.89° C | 54% | 1009.6 hPa | 0 mm | - | 103 W/m² | - |
| 1777984077 | 3.33° C | 54% | 1009.8 hPa | 0 mm | - | 83 W/m² | - |
| 1777983775 | 3.33° C | 56% | 1009.6 hPa | 0 mm | - | 83 W/m² | - |
| 1777983471 | 3.33° C | 57% | 1009.5 hPa | 0 mm | - | 62 W/m² | - |
| 1777983168 | 3.33° C | 57% | 1009.4 hPa | 0 mm | - | 55 W/m² | - |
| 1777982864 | 3.33° C | 58% | 1009.4 hPa | 0 mm | - | 47 W/m² | - |
| 1777982560 | 2.78° C | 60% | 1009.5 hPa | 0 mm | - | 32 W/m² | - |
| 1777982259 | 2.78° C | 63% | 1009.4 hPa | 0 mm | - | 37 W/m² | - |
| 1777981957 | 2.78° C | 64% | 1009.4 hPa | 0 mm | - | 27 W/m² | - |
| 1777981654 | 2.22° C | 65% | 1009.4 hPa | 0 mm | - | 24 W/m² | - |
| 1777981350 | 2.22° C | 66% | 1009.1 hPa | 0 mm | - | 23 W/m² | - |
| 1777981047 | 2.22° C | 67% | 1008.9 hPa | 0 mm | - | 20 W/m² | - |
| 1777980743 | 2.22° C | 69% | 1009.1 hPa | 0 mm | - | 18 W/m² | - |
| 1777980439 | 2.22° C | 70% | 1008.9 hPa | 0 mm | - | 15 W/m² | - |
| 1777980138 | 2.22° C | 70% | 1008.9 hPa | 0 mm | - | 12 W/m² | - |
| 1777979837 | 2.22° C | 71% | 1008.7 hPa | 0 mm | - | 10 W/m² | - |
| 1777979534 | 2.22° C | 71% | 1008.9 hPa | 0 mm | - | 8 W/m² | - |
| 1777979229 | 2.22° C | 71% | 1008.6 hPa | 0 mm | - | 5 W/m² | - |
* Rain latest hour (hover to see other rain measurements)
** Current wind speed in m/s (hover to see current wind gust speed)